When you browse on this site, cookies collect data to enhance your experience and personalize the content and advertising you see.
Visit our Privacy Policy to learn more. By continuing to use the site, you agree to this use of cookies and data.
  • In Switzerland
  • List of Countries
  • For 7 days
  • Water Temperature
  • Satellite Maps
  • Weather Map
  • Weather Widgets
  • user-avatar
    Login

    Hourly Weather Orange Walk

    Today, 23 July, Tuesday

    Time Temperature Precipitation Wind Pressure Humidity
    00:00 +26°C° 0 mm 1 mps 759 mmHg 97%
    01:00 +26°C° 0 mm 1 mps 758 mmHg 97%
    02:00 +25°C° 0 mm 1 mps 758 mmHg 97%
    03:00 +23°C° 0 mm 0 mps 758 mmHg 97%
    04:00 +23°C° 0 mm 0 mps 757 mmHg 97%
    05:00 +23°C° 0 mm 0 mps 757 mmHg 97%
    06:00 +24°C° 0 mm 0 mps 757 mmHg 97%
    07:00 +26°C° 0 mm 0 mps 758 mmHg 87%
    08:00 +30°C° 0 mm 1 mps 758 mmHg 77%
    09:00 +32°C° 0 mm 1 mps 759 mmHg 67%
    10:00 +34°C° 0 mm 2 mps 759 mmHg 61%
    11:00 +35°C° 0 mm 2 mps 758 mmHg 55%
    12:00 +36°C° 0 mm 2 mps 758 mmHg 48%
    13:00 +36°C° 0 mm 3 mps 757 mmHg 49%
    14:00 +36°C° 0 mm 3 mps 757 mmHg 50%
    15:00 +36°C° 0 mm 4 mps 756 mmHg 51%
    16:00 +34°C° 0 mm 3 mps 756 mmHg 59%
    17:00 +33°C° 0 mm 3 mps 756 mmHg 67%
    18:00 +30°C° 0 mm 3 mps 757 mmHg 74%
    19:00 +29°C° 0 mm 2 mps 757 mmHg 81%
    20:00 +27°C° 0 mm 2 mps 758 mmHg 88%
    21:00 +26°C° 0 mm 1 mps 758 mmHg 94%
    22:00 +26°C° 0 mm 1 mps 758 mmHg 95%
    23:00 +26°C° 0 mm 1 mps 758 mmHg 96%

    Tomorrow, 24 July, Wednesday

    Time Temperature Precipitation Wind Pressure Humidity
    00:00 +25°C° 0 mm 1 mps 758 mmHg 96%
    01:00 +26°C° 0 mm 1 mps 758 mmHg 96%
    02:00 +24°C° 0 mm 0 mps 758 mmHg 96%
    03:00 +24°C° 0 mm 0 mps 758 mmHg 96%
    04:00 +24°C° 0 mm 0 mps 758 mmHg 95%
    05:00 +24°C° 0 mm 0 mps 758 mmHg 94%
    06:00 +26°C° 0 mm 1 mps 758 mmHg 94%
    07:00 +28°C° 0 mm 1 mps 758 mmHg 84%
    08:00 +30°C° 0 mm 1 mps 758 mmHg 74%
    09:00 +32°C° 0 mm 2 mps 759 mmHg 65%
    10:00 +34°C° 0 mm 2 mps 758 mmHg 61%
    11:00 +35°C° 0 mm 2 mps 758 mmHg 56%
    12:00 +35°C° 0 mm 2 mps 758 mmHg 52%
    13:00 +35°C° 0 mm 3 mps 757 mmHg 51%
    14:00 +36°C° 0 mm 3 mps 757 mmHg 51%
    15:00 +36°C° 0 mm 3 mps 756 mmHg 50%
    16:00 +34°C° 0 mm 3 mps 756 mmHg 57%
    17:00 +31°C° 0 mm 3 mps 756 mmHg 64%
    18:00 +30°C° 0 mm 3 mps 757 mmHg 72%
    19:00 +29°C° 0 mm 2 mps 757 mmHg 79%
    20:00 +28°C° 0 mm 2 mps 758 mmHg 86%
    21:00 +26°C° 0 mm 2 mps 758 mmHg 93%
    22:00 +26°C° 0 mm 2 mps 758 mmHg 94%
    23:00 +26°C° 0 mm 1 mps 758 mmHg 95%

    Day after tomorrow, 25 July, Thursday

    Time Temperature Precipitation Wind Pressure Humidity
    00:00 +26°C° 0 mm 1 mps 758 mmHg 95%
    01:00 +26°C° 0 mm 1 mps 758 mmHg 96%
    02:00 +26°C° 0 mm 1 mps 757 mmHg 96%
    03:00 +24°C° 0 mm 0 mps 757 mmHg 96%
    04:00 +26°C° 0.1 mm 1 mps 757 mmHg 96%
    05:00 +26°C° 0.1 mm 1 mps 757 mmHg 95%
    06:00 +26°C° 0.1 mm 1 mps 757 mmHg 94%
    07:00 +27°C° 0.9 mm 2 mps 758 mmHg 89%
    08:00 +29°C° 0.9 mm 2 mps 758 mmHg 83%
    09:00 +30°C° 0.9 mm 3 mps 759 mmHg 78%
    10:00 +31°C° 0.2 mm 3 mps 759 mmHg 72%
    11:00 +34°C° 0.2 mm 4 mps 759 mmHg 66%
    12:00 +35°C° 0.2 mm 4 mps 758 mmHg 60%
    13:00 +35°C° 0 mm 4 mps 758 mmHg 58%
    14:00 +35°C° 0 mm 4 mps 757 mmHg 57%
    15:00 +35°C° 0 mm 4 mps 757 mmHg 55%
    16:00 +34°C° 0 mm 4 mps 757 mmHg 62%
    17:00 +31°C° 0 mm 3 mps 757 mmHg 69%
    18:00 +30°C° 0 mm 3 mps 757 mmHg 76%
    19:00 +29°C° 0 mm 2 mps 758 mmHg 82%
    20:00 +28°C° 0 mm 2 mps 758 mmHg 87%
    21:00 +27°C° 0 mm 1 mps 759 mmHg 93%
    22:00 +27°C° 0 mm 1 mps 759 mmHg 94%
    23:00 +26°C° 0 mm 1 mps 759 mmHg 94%

    26 July, Friday

    Time Temperature Precipitation Wind Pressure Humidity
    00:00 +26°C° 0 mm 1 mps 759 mmHg 95%
    01:00 +26°C° 0 mm 1 mps 759 mmHg 95%
    02:00 +26°C° 0 mm 1 mps 758 mmHg 95%
    03:00 +26°C° 0 mm 1 mps 758 mmHg 95%
    04:00 +26°C° 0 mm 1 mps 758 mmHg 94%
    05:00 +27°C° 0 mm 1 mps 758 mmHg 93%
    06:00 +27°C° 0 mm 1 mps 759 mmHg 93%
    07:00 +29°C° 0 mm 2 mps 759 mmHg 83%
    08:00 +30°C° 0 mm 3 mps 759 mmHg 74%
    09:00 +33°C° 0 mm 4 mps 760 mmHg 64%
    10:00 +34°C° 0.2 mm 4 mps 760 mmHg 59%
    11:00 +35°C° 0.2 mm 4 mps 760 mmHg 54%
    12:00 +36°C° 0.2 mm 4 mps 759 mmHg 48%
    13:00 +36°C° 0 mm 4 mps 759 mmHg 48%
    14:00 +36°C° 0 mm 4 mps 758 mmHg 48%
    15:00 +36°C° 0 mm 4 mps 758 mmHg 48%
    16:00 +34°C° 0 mm 3 mps 758 mmHg 54%
    17:00 +33°C° 0 mm 3 mps 758 mmHg 61%
    18:00 +30°C° 0 mm 2 mps 758 mmHg 68%
    19:00 +29°C° 0 mm 2 mps 759 mmHg 75%
    20:00 +28°C° 0 mm 1 mps 759 mmHg 81%
    21:00 +26°C° 0 mm 1 mps 760 mmHg 88%
    22:00 +26°C° 0 mm 1 mps 760 mmHg 90%
    23:00 +26°C° 0 mm 1 mps 759 mmHg 91%

    27 July, Saturday

    Time Temperature Precipitation Wind Pressure Humidity
    00:00 +26°C° 0 mm 1 mps 759 mmHg 93%
    01:00 +25°C° 0 mm 1 mps 759 mmHg 93%
    02:00 +25°C° 0 mm 1 mps 759 mmHg 94%
    03:00 +25°C° 0 mm 1 mps 758 mmHg 95%
    04:00 +23°C° 0 mm 0 mps 759 mmHg 95%
    05:00 +23°C° 0 mm 0 mps 759 mmHg 94%
    06:00 +23°C° 0 mm 0 mps 759 mmHg 94%
    07:00 +28°C° 0 mm 1 mps 760 mmHg 83%
    08:00 +30°C° 0 mm 2 mps 760 mmHg 73%
    09:00 +32°C° 0 mm 2 mps 760 mmHg 62%
    10:00 +34°C° 0.3 mm 3 mps 760 mmHg 60%
    11:00 +34°C° 0.3 mm 3 mps 760 mmHg 58%
    12:00 +35°C° 0.3 mm 3 mps 760 mmHg 56%
    13:00 +35°C° 0.1 mm 4 mps 759 mmHg 55%
    14:00 +35°C° 0.1 mm 4 mps 759 mmHg 53%
    15:00 +35°C° 0.1 mm 4 mps 758 mmHg 52%
    16:00 +34°C° 0 mm 4 mps 758 mmHg 58%
    17:00 +31°C° 0 mm 3 mps 759 mmHg 64%
    18:00 +30°C° 0 mm 3 mps 759 mmHg 71%
    19:00 +29°C° 0 mm 2 mps 759 mmHg 75%
    20:00 +28°C° 0 mm 2 mps 759 mmHg 80%
    21:00 +27°C° 0 mm 2 mps 760 mmHg 85%
    22:00 +27°C° 0.1 mm 2 mps 760 mmHg 85%
    23:00 +27°C° 0.1 mm 2 mps 760 mmHg 86%

    28 July, Sunday

    Time Temperature Precipitation Wind Pressure Humidity
    00:00 +27°C° 0.1 mm 2 mps 760 mmHg 87%
    01:00 +27°C° 0.2 mm 1 mps 759 mmHg 88%
    02:00 +27°C° 0.2 mm 1 mps 759 mmHg 90%
    03:00 +26°C° 0.2 mm 1 mps 759 mmHg 92%
    04:00 +26°C° 0.1 mm 1 mps 759 mmHg 93%
    05:00 +26°C° 0.1 mm 1 mps 759 mmHg 94%
    06:00 +26°C° 0.1 mm 2 mps 759 mmHg 95%
    07:00 +28°C° 0.3 mm 2 mps 760 mmHg 89%
    08:00 +29°C° 0.3 mm 3 mps 760 mmHg 83%
    09:00 +32°C° 0.3 mm 4 mps 760 mmHg 77%
    10:00 +33°C° 0.6 mm 4 mps 760 mmHg 71%
    11:00 +34°C° 0.6 mm 4 mps 760 mmHg 64%
    12:00 +35°C° 0.6 mm 5 mps 760 mmHg 58%
    13:00 +35°C° 0.2 mm 5 mps 759 mmHg 57%
    14:00 +35°C° 0.2 mm 5 mps 759 mmHg 56%
    15:00 +35°C° 0.2 mm 5 mps 758 mmHg 55%
    16:00 +34°C° 0 mm 4 mps 758 mmHg 61%
    17:00 +31°C° 0 mm 3 mps 758 mmHg 67%
    18:00 +30°C° 0 mm 2 mps 758 mmHg 72%
    19:00 +29°C° 0 mm 2 mps 759 mmHg 78%
    20:00 +28°C° 0 mm 2 mps 759 mmHg 84%
    21:00 +27°C° 0 mm 1 mps 760 mmHg 89%
    22:00 +27°C° 0 mm 1 mps 760 mmHg 91%
    23:00 +26°C° 0 mm 1 mps 760 mmHg 93%
    Show more